Regional Weather Roundup
Issued by NWS Upton, NY

Home | Current Version | Previous Version | Text Only | Print | Product List | Glossary On
Versions: 1 2 3 4 5 6 7 8 9 10 11 12 13 14 15 16 17 18 19 20 21 22 23 24 25 26 27 28 29 30 31 32 33 34 35 36 37 38 39 40 41 42 43 44 45 46 47 48 49 50
000
ASUS41 KOKX 231709
RWROKX

REGIONAL WEATHER ROUNDUP
NATIONAL WEATHER SERVICE NEW YORK NY
100 PM EDT SUN JUL 23 2017

NOTE: "FAIR" INDICATES FEW OR NO CLOUDS BELOW 12,000 FEET WITH NO
SIGNIFICANT WEATHER AND/OR OBSTRUCTIONS TO VISIBILITY.

NYZ071-072-176-178-NJZ106-104-231800-
NEW YORK CITY METRO AREA

CITY           SKY/WX    TMP DP  RH WIND       PRES   REMARKS
Central Park   CLOUDY    74  69  85 CALM      29.86R
Bronx Bot Gard   N/A     75  63  64 SE7       29.85R
LaGuardia APRT LGT RAIN  77  68  73 NE10      29.83R
Kennedy INTL   PTSUNNY   77  70  79 S12       29.84R
Breezy Point     N/A     73 N/A N/A S8          N/A
Newark/Liberty LGT RAIN  77  66  68 S9        29.83R
Teterboro      CLOUDY    79  65  62 E7        29.81R
$$

NYZ177-179-078>081-231800-
LONG ISLAND NEW YORK

CITY           SKY/WX    TMP DP  RH WIND       PRES   REMARKS
Jones Beach      N/A     75 N/A N/A SE9G15      N/A
Matinecock PT    N/A     73 N/A N/A E17         N/A
Farmingdale    MOSUNNY   79  68  69 S7        29.83R
MacArthur/ISP  PTSUNNY   79  67  66 SE8       29.82S
Shirley        PTSUNNY   78  69  73 SE10      29.84R
Mt Sinai Harb    N/A    N/A N/A N/A E12G17      N/A
Westhampton    CLOUDY    75  66  73 E7        29.83R
East Hampton   CLOUDY    73  60  64 E10G16    29.85R
Montauk          N/A     73  62  68 NE6       29.86S
$$

NYZ052-065-067-231800-
HUDSON VALLEY

CITY           SKY/WX    TMP DP  RH WIND       PRES   REMARKS
White Plains   NOT AVBL
Larchmont Harb   N/A     73 N/A N/A NE15        N/A
Croton O-T Hud   N/A     79 N/A N/A SW6         N/A
Newburgh       PTSUNNY   81  68  65 VRB5      29.85R
Montgomery     CLOUDY    81  66  60 VRB3      29.83R
Poughkeepsie   PTSUNNY   78  64  61 E3        29.82R
Albany         CLOUDY    77  62  59 N5        29.85S
$$

NJZ001-105-106-008-010-013-015-019>022-104-231800-
NEW JERSEY

CITY           SKY/WX    TMP DP  RH WIND       PRES   REMARKS
Newark/Liberty LGT RAIN  77  66  68 S9        29.83R
Teterboro      CLOUDY    79  65  62 E7        29.81R
Caldwell       LGT RAIN  76  68  76 SE6       29.84R
Somerville     CLOUDY    81  71  71 MISG      29.81R
Linden         CLOUDY    77  63  62 S7        29.83R
Perth Amboy      N/A     75 N/A N/A SE7         N/A
Sussex         CLOUDY    80  65  59 CALM      29.83R
Andover          N/A     77  68  73 CALM      29.84R
Trenton        CLOUDY    79  67  66 E6        29.83R
Millville      CLOUDY    85  74  69 W6        29.80R HX  92
Atlantic City  CLOUDY    80  73  79 E12       29.81R
Wrightstown    CLOUDY    76  69  80 N2        29.82R
Toms River     CLOUDY    78  65  63 E8        29.84R
Belmar         CLOUDY    78  67  68 E10       29.84R
$$

PAZ047>061-062-071-231800-
EASTERN PENNSYLVANIA

CITY           SKY/WX    TMP DP  RH WIND       PRES   REMARKS
Philadelphia   PTSUNNY   84  72  67 E7        29.81R
Allentown      CLOUDY    81  67  62 SE6       29.83R
Scranton       PTSUNNY   79  64  60 VRB3      29.84S
$$

CTZ002-004>006-009-010-012-RIZ004-006-007-MAZ004-011-015-231800-
SOUTHERN NEW ENGLAND
 IN CT

CITY           SKY/WX    TMP DP  RH WIND       PRES   REMARKS
Bradley INTL   PTSUNNY   79  56  45 NE6       29.86R
Hartford       MOSUNNY   80  60  50 VRB3      29.84S
Danbury        CLOUDY    80  65  59 VRB5      29.85S
Wtrbury/Oxford PTSUNNY   79  61  53 SE6       29.87R
Bridgeport     MOSUNNY   77  65  66 E15       29.84R
Meriden        CLOUDY    79  61  53 CALM      29.84R
New Haven      PTSUNNY   79  64  60 SE15      29.85R
Chester        PTSUNNY   77  63  61 E8        29.86R
Groton         CLOUDY    75  59  57 E10       29.85R
Wilimantic     SUNNY     81  58  45 NE10      29.85S

 IN RI

CITY           SKY/WX    TMP DP  RH WIND       PRES   REMARKS
Providence     PTSUNNY   76  54  46 E10       29.87R
Block Island   CLOUDY    71  60  68 NE13G21   29.86R
Westerly       CLOUDY    77  59  53 NE10      29.86R
 IN MA

CITY           SKY/WX    TMP DP  RH WIND       PRES   REMARKS
Boston         PTSUNNY   70  56  61 NE14      29.90S
Worcester      MOSUNNY   73  51  46 NE9G18    29.90R
Westfield      MOSUNNY   79  58  48 E9        29.86S
Provincetown   CLOUDY    70  57  63 NE10      29.89R
Nantucket      MOSUNNY   71  64  78 NE13      29.84R
$$

ANZ330-335-338-340-345-350-353-355-231800-
COASTAL MARINE OBSERVATIONS


STATION/POSITION TIME  SKY/WX   TEMP    WIND        PRES    VSBY  WAVE
                                AIR SEA DIR/SP/G                  HT/PER
                 (UTC)          (F)     (DEG/KT/KT) (MB)    (MI)  (FT/S)
NY HARB ENTRANCE 1550            74 76  100/  8/  8 1009.3          3/ 7
20 S FIRE ISLAND 1650            74 77  100/ 12/ 14 1009.4          4/ 6
GREAT SOUTH BAY  1630            75 84  130/  4/  8   N/A
23 SSW MONTAUK P 1550            74 76              1010.5          3/ 7
15 E BARNEGAT LI 1630               77                N/A           4/ 7
HUDSON CANYON    1550            72 79   80/ 10/ 12 1008.6          5/ 7
KINGS POINT      1630            78 73   50/  5/  9 1009.5
EXECUTION ROCKS  1645            76     280/ 12/ 14   N/A
CENTRAL LI SOUND NOT AVBL
EASTERN LI SOUND NOT AVBL
ROBBINS REEF     1624                   170/ 13/ 15 1010.3
$$


>>>>>>>>>>>>>>>>>>>>>>>>>>>> KEY <<<<<<<<<<<<<<<<<<<<<<<<<<<
>                                                          <
>     SKY/WX - Sky Condition/Present Weather               <
>     TMP    - Temperature in Fahrenheit                   <
>     DP     - Dew Point in Fahrenheit                     <
>     RH     - Relative Humidity in Percent                <
>     WIND   - Direction (from) and Speed in MPH           <
>     PRES   - Mean Sea Level Pressure (inches of Hg)      <
>     WCI    - Wind Chill Index                            <
>     VSB    - VISIBILITY IN MILES                         <
>     HX     - HEAT INDEX                                  <
>     TC     - TEMPERATURE IN CELSIUS                      <
>     VRB    - VARIABLE WIND DIRECTION                     <
>                                                          <
>>>>>>>>>>>>>>>>>>>>>>>>>>>> KEY <<<<<<<<<<<<<<<<<<<<<<<<<<<



USA.gov is the U.S. government's official web portal to all federal, state and local government web resources and services.